| time (UTC) | temp C | wind direction | speed KPH | gust KPH | rain 1hr cm | rain 24hr cm | rain mn cm | humidity % | barometer mb |
| 20260507072917 | 7 | 0 | 0.0 | 6.4 | 0.00 | 0.20 | 0.00 | 86 | 1011.0 |
| 20260507071917 | 7 | 62 | 1.6 | 14.5 | 0.00 | 0.23 | 0.00 | 86 | 1011.0 |
| 20260507070917 | 7 | 0 | 0.0 | 17.7 | 0.00 | 0.25 | 0.00 | 86 | 1010.9 |
| 20260507065917 | 7 | 0 | 0.0 | 12.9 | 0.00 | 0.25 | 0.00 | 86 | 1010.7 |
| 20260507064917 | 7 | 61 | 1.6 | 9.7 | 0.00 | 0.25 | 0.00 | 86 | 1010.7 |
| 20260507063917 | 7 | 45 | 1.6 | 6.4 | 0.00 | 0.25 | 0.00 | 86 | 1010.5 |
| 20260507062917 | 7 | 0 | 0.0 | 9.7 | 0.00 | 0.28 | 0.00 | 86 | 1010.4 |
| 20260507061917 | 7 | 0 | 0.0 | 17.7 | 0.00 | 0.30 | 0.00 | 86 | 1010.2 |
| 20260507060917 | 7 | 50 | 1.6 | 14.5 | 0.00 | 0.36 | 0.00 | 86 | 1010.1 |
| 20260507055917 | 8 | 0 | 0.0 | 14.5 | 0.00 | 0.36 | 0.00 | 86 | 1009.9 |
| 20260507054917 | 8 | 0 | 0.0 | 12.9 | 0.00 | 0.36 | 0.00 | 86 | 1009.7 |
| 20260507053917 | 8 | 0 | 0.0 | 9.7 | 0.00 | 0.38 | 0.00 | 86 | 1009.7 |
| 20260507052917 | 8 | 47 | 1.6 | 6.4 | 0.00 | 0.41 | 0.00 | 86 | 1009.5 |
| 20260507051917 | 8 | 0 | 0.0 | 4.8 | 0.00 | 0.41 | 0.00 | 86 | 1009.2 |
| 20260507050917 | 8 | 0 | 0.0 | 1.6 | 0.00 | 0.41 | 0.00 | 86 | 1009.2 |
| 20260507045917 | 8 | 0 | 0.0 | 1.6 | 0.00 | 0.43 | 0.00 | 86 | 1009.1 |
| 20260507044917 | 8 | 0 | 0.0 | 1.6 | 0.00 | 0.43 | 0.00 | 86 | 1009.0 |
| 20260507043917 | 8 | 0 | 0.0 | 1.6 | 0.00 | 0.43 | 0.00 | 86 | 1009.0 |
| 20260507042917 | 8 | 0 | 0.0 | 4.8 | 0.00 | 0.43 | 0.00 | 86 | 1008.7 |
| 20260507041916 | 8 | 0 | 0.0 | 1.6 | 0.00 | 0.43 | 0.00 | 86 | 1008.7 |
| 20260507040917 | 8 | 0 | 0.0 | 1.6 | 0.00 | 0.46 | 0.00 | 86 | 1008.7 |
| 20260507035916 | 8 | 0 | 0.0 | 6.4 | 0.00 | 0.48 | 0.00 | 86 | 1008.6 |
| 20260507034917 | 8 | 0 | 0.0 | 0.0 | 0.00 | 0.53 | 0.00 | 86 | 1008.5 |
| 20260507033917 | 8 | 0 | 0.0 | 1.6 | 0.00 | 0.53 | 0.00 | 86 | 1008.4 |
| 20260507032917 | 8 | 0 | 0.0 | 1.6 | 0.00 | 0.58 | 0.00 | 86 | 1008.4 |
| 20260507031917 | 8 | 0 | 0.0 | 0.0 | 0.00 | 0.61 | 0.00 | 86 | 1008.2 |
| 20260507030916 | 8 | 0 | 0.0 | 4.8 | 0.00 | 0.64 | 0.00 | 86 | 1008.2 |
| 20260507025916 | 8 | 0 | 0.0 | 14.5 | 0.00 | 0.66 | 0.00 | 86 | 1008.1 |
| 20260507024917 | 8 | 0 | 0.0 | 4.8 | 0.00 | 0.71 | 0.00 | 86 | 1008.1 |
| 20260507023916 | 8 | 0 | 0.0 | 9.7 | 0.00 | 0.79 | 0.00 | 86 | 1008.1 |
| 20260507022916 | 8 | 0 | 0.0 | 6.4 | 0.00 | 0.81 | 0.00 | 86 | 1008.0 |
| 20260507021916 | 8 | 0 | 0.0 | 6.4 | 0.00 | 0.84 | 0.00 | 86 | 1008.0 |
| 20260507020917 | 8 | 0 | 0.0 | 6.4 | 0.00 | 0.89 | 0.00 | 86 | 1007.7 |
| 20260507015916 | 8 | 0 | 0.0 | 4.8 | 0.00 | 0.91 | 0.00 | 86 | 1007.7 |
| 20260507014916 | 8 | 0 | 0.0 | 6.4 | 0.00 | 0.97 | 0.00 | 86 | 1007.7 |
| 20260507013916 | 8 | 0 | 0.0 | 6.4 | 0.00 | 0.99 | 0.00 | 86 | 1007.7 |
| 20260507012916 | 8 | 0 | 0.0 | 4.8 | 0.00 | 1.04 | 0.00 | 86 | 1007.7 |
| 20260507011917 | 8 | 0 | 0.0 | 4.8 | 0.00 | 1.09 | 0.00 | 86 | 1007.7 |
| 20260507010916 | 8 | 0 | 0.0 | 4.8 | 0.00 | 1.14 | 0.00 | 86 | 1007.6 |
| 20260507005916 | 8 | 0 | 0.0 | 6.4 | 0.00 | 1.19 | 0.00 | 86 | 1007.6 |
| 20260507004916 | 8 | 0 | 0.0 | 1.6 | 0.00 | 1.19 | 0.00 | 86 | 1007.5 |
| 20260507003917 | 8 | 0 | 0.0 | 1.6 | 0.00 | 1.24 | 0.00 | 86 | 1007.6 |
| 20260507002916 | 8 | 0 | 0.0 | 12.9 | 0.00 | 1.27 | 0.00 | 86 | 1007.6 |
| 20260507001916 | 8 | 0 | 0.0 | 6.4 | 0.00 | 1.30 | 0.00 | 86 | 1007.4 |
| 20260507000916 | 8 | 0 | 0.0 | 19.3 | 0.00 | 1.30 | 0.00 | 86 | 1007.2 |
| 20260506235916 | 8 | 0 | 0.0 | 12.9 | 0.00 | 1.32 | 0.00 | 86 | 1007.2 |
| 20260506234916 | 8 | 0 | 0.0 | 1.6 | 0.00 | 1.40 | 0.00 | 86 | 1007.2 |
| 20260506233916 | 8 | 0 | 0.0 | 17.7 | 0.00 | 1.42 | 0.00 | 86 | 1007.2 |
| 20260506232916 | 8 | 83 | 1.6 | 6.4 | 0.00 | 1.42 | 0.00 | 85 | 1007.2 |
| 20260506231916 | 8 | 0 | 0.0 | 12.9 | 0.00 | 1.47 | 0.00 | 85 | 1007.2 |
| 20260506230916 | 8 | 0 | 0.0 | 9.7 | 0.00 | 1.50 | 0.00 | 85 | 1007.1 |
| 20260506225916 | 8 | 0 | 0.0 | 9.7 | 0.00 | 1.55 | 0.00 | 85 | 1007.1 |
| 20260506224916 | 8 | 0 | 0.0 | 9.7 | 0.00 | 1.57 | 0.00 | 85 | 1007.1 |
| 20260506223917 | 8 | 0 | 0.0 | 6.4 | 0.00 | 1.57 | 0.00 | 84 | 1007.1 |
| 20260506222916 | 8 | 0 | 0.0 | 4.8 | 0.00 | 1.57 | 0.00 | 84 | 1007.1 |
| 20260506221916 | 8 | 0 | 0.0 | 4.8 | 0.00 | 1.60 | 0.00 | 84 | 1007.0 |
| 20260506220916 | 9 | 0 | 0.0 | 9.7 | 0.00 | 1.63 | 0.00 | 83 | 1006.9 |
| 20260506215916 | 9 | 0 | 0.0 | 4.8 | 0.00 | 1.65 | 0.00 | 83 | 1006.7 |
| 20260506214916 | 9 | 0 | 0.0 | 4.8 | 0.00 | 1.65 | 0.00 | 83 | 1006.7 |
| 20260506213916 | 9 | 0 | 0.0 | 4.8 | 0.00 | 1.65 | 0.00 | 83 | 1006.7 |
| 20260506212916 | 8 | 0 | 0.0 | 1.6 | 0.00 | 1.68 | 0.00 | 83 | 1006.7 |
| 20260506211916 | 8 | 0 | 0.0 | 1.6 | 0.00 | 1.70 | 0.00 | 84 | 1006.6 |
| 20260506210916 | 8 | 0 | 0.0 | 4.8 | 0.00 | 1.73 | 0.00 | 84 | 1006.6 |
| 20260506205916 | 8 | 0 | 0.0 | 4.8 | 0.00 | 1.75 | 0.00 | 84 | 1006.6 |
| 20260506204916 | 8 | 0 | 0.0 | 4.8 | 0.03 | 1.80 | 0.00 | 84 | 1006.6 |
| 20260506203916 | 8 | 0 | 0.0 | 1.6 | 0.03 | 1.83 | 0.00 | 84 | 1006.5 |
| 20260506202916 | 8 | 0 | 0.0 | 9.7 | 0.03 | 1.85 | 0.00 | 84 | 1006.6 |
| 20260506201916 | 9 | 0 | 0.0 | 9.7 | 0.00 | 1.85 | 0.00 | 85 | 1006.5 |
| 20260506200916 | 9 | 0 | 0.0 | 1.6 | 0.03 | 1.85 | 0.00 | 85 | 1006.5 |
| 20260506195916 | 9 | 0 | 0.0 | 6.4 | 0.00 | 1.85 | 0.00 | 85 | 1006.4 |
| 20260506194916 | 9 | 0 | 0.0 | 4.8 | 0.00 | 1.88 | 0.00 | 85 | 1006.4 |
| 20260506193916 | 9 | 0 | 0.0 | 1.6 | 0.00 | 1.88 | 0.00 | 85 | 1006.2 |
| 20260506192916 | 9 | 0 | 0.0 | 4.8 | 0.00 | 1.88 | 0.00 | 85 | 1006.1 |
| 20260506191916 | 9 | 0 | 0.0 | 1.6 | 0.03 | 1.88 | 0.00 | 85 | 1006.0 |
| 20260506190916 | 9 | 0 | 0.0 | 4.8 | 0.00 | 1.85 | 0.00 | 86 | 1005.9 |
| 20260506185916 | 9 | 0 | 0.0 | 4.8 | 0.00 | 1.85 | 0.00 | 86 | 1005.7 |
| 20260506184916 | 9 | 0 | 0.0 | 1.6 | 0.00 | 1.85 | 0.00 | 86 | 1005.6 |
| 20260506183916 | 9 | 0 | 0.0 | 1.6 | 0.00 | 1.85 | 0.00 | 86 | 1005.5 |
| 20260506182916 | 9 | 0 | 0.0 | 6.4 | 0.00 | 1.85 | 0.00 | 86 | 1005.4 |
| 20260506181916 | 9 | 0 | 0.0 | 9.7 | 0.00 | 1.83 | 0.00 | 86 | 1005.4 |
| 20260506180916 | 10 | 0 | 0.0 | 4.8 | 0.00 | 1.83 | 0.00 | 85 | 1005.2 |
| 20260506175916 | 10 | 0 | 0.0 | 1.6 | 0.00 | 1.83 | 0.00 | 85 | 1005.2 |
| 20260506174916 | 10 | 0 | 0.0 | 4.8 | 0.00 | 1.83 | 0.00 | 85 | 1005.1 |
| 20260506173916 | 10 | 0 | 0.0 | 4.8 | 0.00 | 1.83 | 0.00 | 85 | 1005.0 |
| 20260506172916 | 10 | 0 | 0.0 | 4.8 | 0.00 | 1.83 | 0.00 | 85 | 1005.2 |
| 20260506171916 | 10 | 0 | 0.0 | 4.8 | 0.00 | 1.83 | 0.00 | 85 | 1005.2 |
| 20260506170916 | 10 | 0 | 0.0 | 1.6 | 0.00 | 1.83 | 0.00 | 85 | 1005.0 |
| 20260506165916 | 10 | 0 | 0.0 | 1.6 | 0.00 | 1.83 | 0.00 | 84 | 1005.0 |
| 20260506164916 | 10 | 0 | 0.0 | 4.8 | 0.00 | 1.83 | 0.00 | 84 | 1004.9 |
| 20260506163916 | 10 | 0 | 0.0 | 6.4 | 0.00 | 1.83 | 0.00 | 84 | 1004.7 |
| 20260506162916 | 10 | 0 | 0.0 | 4.8 | 0.00 | 1.83 | 0.00 | 84 | 1004.7 |
| 20260506161916 | 10 | 0 | 0.0 | 4.8 | 0.00 | 1.83 | 0.00 | 84 | 1004.7 |
| 20260506160916 | 10 | 0 | 0.0 | 1.6 | 0.00 | 1.83 | 0.00 | 83 | 1004.7 |
| 20260506155916 | 10 | 0 | 0.0 | 1.6 | 0.00 | 1.83 | 0.00 | 84 | 1004.7 |
| 20260506154916 | 10 | 0 | 0.0 | 4.8 | 0.00 | 1.83 | 0.00 | 83 | 1004.7 |
| 20260506153916 | 10 | 0 | 0.0 | 6.4 | 0.00 | 1.83 | 0.00 | 84 | 1004.7 |
| 20260506152916 | 10 | 0 | 0.0 | 4.8 | 0.00 | 1.83 | 0.00 | 83 | 1004.9 |
| 20260506151916 | 10 | 0 | 0.0 | 4.8 | 0.00 | 1.83 | 0.00 | 83 | 1004.7 |
| 20260506150916 | 10 | 0 | 0.0 | 4.8 | 0.00 | 1.83 | 0.00 | 83 | 1004.7 |
| 20260506145916 | 10 | 0 | 0.0 | 4.8 | 0.00 | 1.83 | 0.00 | 83 | 1004.7 |
| 20260506144916 | 10 | 0 | 0.0 | 9.7 | 0.00 | 1.83 | 0.00 | 83 | 1004.6 |
| 20260506143916 | 11 | 0 | 0.0 | 4.8 | 0.00 | 1.83 | 0.00 | 82 | 1004.6 |
| 20260506142916 | 11 | 0 | 0.0 | 4.8 | 0.00 | 1.83 | 0.00 | 82 | 1004.6 |
| 20260506141916 | 11 | 0 | 0.0 | 4.8 | 0.00 | 1.83 | 0.00 | 82 | 1004.6 |
| 20260506140916 | 11 | 0 | 0.0 | 6.4 | 0.00 | 1.83 | 0.00 | 82 | 1004.6 |
| 20260506135916 | 11 | 0 | 0.0 | 9.7 | 0.00 | 1.83 | 0.00 | 82 | 1004.5 |
| 20260506134916 | 10 | 54 | 1.6 | 9.7 | 0.00 | 1.83 | 0.00 | 82 | 1004.5 |
| 20260506133917 | 10 | 44 | 4.8 | 12.9 | 0.00 | 1.83 | 0.00 | 82 | 1004.5 |
| 20260506132916 | 11 | 0 | 0.0 | 6.4 | 0.00 | 1.83 | 0.00 | 82 | 1004.5 |
| 20260506131916 | 10 | 0 | 0.0 | 9.7 | 0.00 | 1.83 | 0.00 | 82 | 1004.5 |
| 20260506130916 | 11 | 0 | 0.0 | 12.9 | 0.00 | 1.83 | 0.00 | 82 | 1004.4 |
| 20260506125916 | 11 | 0 | 0.0 | 6.4 | 0.00 | 1.83 | 0.00 | 81 | 1004.4 |
| 20260506124916 | 10 | 0 | 0.0 | 6.4 | 0.00 | 1.85 | 0.00 | 81 | 1004.4 |
| 20260506123916 | 11 | 0 | 0.0 | 1.6 | 0.00 | 1.85 | 0.00 | 81 | 1004.2 |
| 20260506122916 | 10 | 0 | 0.0 | 12.9 | 0.00 | 1.98 | 0.00 | 81 | 1004.2 |
| 20260506121916 | 10 | 0 | 0.0 | 6.4 | 0.00 | 1.98 | 0.00 | 81 | 1004.2 |
| 20260506120916 | 10 | 0 | 0.0 | 12.9 | 0.00 | 1.98 | 0.00 | 81 | 1004.1 |
| 20260506115916 | 10 | 0 | 0.0 | 6.4 | 0.00 | 1.98 | 0.00 | 82 | 1004.0 |
| 20260506114916 | 10 | 53 | 6.4 | 14.5 | 0.00 | 1.98 | 0.00 | 81 | 1004.1 |
| 20260506113916 | 10 | 53 | 1.6 | 12.9 | 0.00 | 1.98 | 0.00 | 81 | 1004.0 |
| 20260506112916 | 10 | 87 | 1.6 | 14.5 | 0.00 | 1.98 | 0.00 | 82 | 1004.0 |
| 20260506111916 | 10 | 51 | 1.6 | 22.5 | 0.00 | 1.98 | 0.00 | 81 | 1003.9 |
| 20260506110916 | 10 | 53 | 6.4 | 14.5 | 0.00 | 1.98 | 0.00 | 81 | 1003.7 |
| 20260506105916 | 10 | 71 | 1.6 | 12.9 | 0.00 | 1.98 | 0.00 | 81 | 1003.7 |
| 20260506104916 | 10 | 23 | 1.6 | 17.7 | 0.00 | 1.98 | 0.00 | 81 | 1003.9 |
| 20260506103916 | 10 | 0 | 0.0 | 14.5 | 0.00 | 1.98 | 0.00 | 81 | 1004.0 |
| 20260506102916 | 10 | 55 | 1.6 | 14.5 | 0.00 | 1.98 | 0.00 | 81 | 1003.9 |
| 20260506101916 | 10 | 0 | 0.0 | 9.7 | 0.00 | 1.98 | 0.00 | 81 | 1003.7 |
| 20260506100916 | 10 | 36 | 1.6 | 19.3 | 0.00 | 1.98 | 0.00 | 81 | 1003.7 |
| 20260506095916 | 10 | 0 | 0.0 | 17.7 | 0.00 | 1.98 | 0.00 | 81 | 1003.6 |
| 20260506094916 | 10 | 78 | 1.6 | 12.9 | 0.00 | 1.98 | 0.00 | 81 | 1003.5 |
| 20260506093916 | 10 | 48 | 1.6 | 9.7 | 0.00 | 1.98 | 0.00 | 81 | 1003.5 |
| 20260506092916 | 10 | 0 | 0.0 | 9.7 | 0.00 | 1.98 | 0.00 | 81 | 1003.5 |
| 20260506091916 | 10 | 0 | 0.0 | 17.7 | 0.00 | 1.98 | 0.00 | 81 | 1003.4 |
| 20260506090916 | 10 | 67 | 1.6 | 12.9 | 0.00 | 1.98 | 0.00 | 81 | 1003.4 |
| 20260506085916 | 10 | 61 | 1.6 | 17.7 | 0.00 | 1.98 | 0.00 | 81 | 1003.2 |
| 20260506084916 | 10 | 0 | 0.0 | 9.7 | 0.00 | 1.98 | 0.00 | 80 | 1003.2 |
| 20260506083916 | 10 | 0 | 0.0 | 9.7 | 0.00 | 1.96 | 0.00 | 81 | 1003.2 |
| 20260506082916 | 10 | 0 | 0.0 | 9.7 | 0.00 | 1.96 | 0.00 | 81 | 1003.2 |
| 20260506081916 | 10 | 0 | 0.0 | 12.9 | 0.00 | 1.93 | 0.00 | 81 | 1003.2 |
| 20260506080916 | 10 | 0 | 0.0 | 6.4 | 0.00 | 1.93 | 0.00 | 81 | 1003.1 |